{"data":{"norad_id":35683,"epoch":"2026-09-20T04:41:41.447904Z","epoch_age_seconds":40608,"freshness":"FRESH","line1":"1 35683U 09041C   26263.19561861  .00000150  00000+0  28884-4 0  9994","line2":"2 35683  97.8971  35.9177 0001141  71.3901 288.7432 14.76144918920581","mean_motion":14.76144918,"eccentricity":0.0001141,"inclination_deg":97.8971,"raan_deg":35.9177,"arg_perigee_deg":71.3901,"mean_anomaly_deg":288.7432,"bstar":2.8884e-5,"rev_number":92058,"period_min":97.551397728011,"perigee_km":640.71828755206,"apogee_km":642.32017310382,"semimajor_km":7019.6562303279,"source":"CELESTRAK","updated_at":"2026-09-20T09:00:34.586719Z"}}